Location: Krakow
(50.0830°N, 19.9170°E)
Time: 17:38:03
(UTC+01:00)

Transit 2A - Pass Details

Date: 09 February 2023
Orbit: 591 x 964 km, 66.7° (Epoch: 21 March)

Event Time Altitude Azimuth Distance (km) Brightness Sun altitude
Rises 19:08:59 0° 296° (WNW) 3,261 10.4 -23.0°
Reaches altitude 10° 19:12:23 10° 318° (NW) 2,416 9.2 -23.6°
Maximum altitude 19:15:40 16° 354° (N) 2,122 8.4 -24.1°
Enters shadow 19:18:15 12° 23° (NNE) 2,391 8.4 -24.5°
Drops below altitude 10° 19:19:05 10° 30° (NNE) 2,559 - -24.6°
Sets 19:22:52 0° 52° (NE) 3,565 - -25.2°
